Weather History for Fairmont, MN

Change the Weather History Date:

Saturday, February 4, 2012

  Actual Average Record
Temperature  
Mean Temperature 28 °F -  
Max Temperature 30 °F 21 °F 60 °F (2005)
Min Temperature 26 °F 4 °F -20 °F (1979)
Degree Days  
Heating Degree Days 37    
Moisture  
Dew Point 26 °F    
Average Humidity 90    
Maximum Humidity 93    
Minimum Humidity 86    
Precipitation  
Precipitation 0.00 in - - ()
Sea Level Pressure  
Sea Level Pressure 30.38 in    
Wind  
Wind Speed 13 mph (North)    
Max Wind Speed 17 mph    
Max Gust Speed 22 mph    
Visibility 4 miles    
Events      
Averages and records for this station are not official NWS values.
T = Trace of Precipitation, MM = Missing Value Source: NWS Daily Summary

Daily Weather History Graph

Daily Weather History Graph

Search for Another Location

Airport:

Trip Planner

Search our weather history database for the weather conditions in past years. The results will help you decide how hot, cold, wet, or windy it might be!

Date:

Astronomy

Feb. 04, 2012 Rise Set
Actual Time 7:31 AM CST 5:32 PM CST
Civil Twilight 7:01 AM CST 6:02 PM CST
Nautical Twilight 6:26 AM CST 6:36 PM CST
Astronomical Twilight 5:53 AM CST 7:10 PM CST
Moon 2:26 PM CST (2/4) 5:01 AM CST (2/4)
Length of Visible Light 11h 01m
Length of Day
10h 01m
Waxing Gibbous, 89% of the Moon is Illuminated
Feb 4
Waxing Gibbous
Feb 7
Full
Feb 14
Last Quarter
Feb 21
New
Feb 29
First Quarter

Hourly Weather History & Observations

Time (CST) Temp. Windchill Dew Point Humidity Pressure Visibility Wind Dir Wind Speed Gust Speed Precip Events Conditions
12:15 AM 30.2 °F 19.8 °F 26.6 °F 86% 30.40 in 6.0 mi North 13.8 mph - N/A   Mostly Cloudy
12:35 AM 30.2 °F 19.8 °F 26.6 °F 86% 30.40 in 5.0 mi NNE 13.8 mph - N/A   Scattered Clouds
12:55 AM 30.2 °F 19.3 °F 26.6 °F 86% 30.39 in 4.0 mi NNE 15.0 mph - N/A   Scattered Clouds
1:15 AM 30.2 °F 20.2 °F 26.6 °F 86% 30.39 in 4.0 mi NNE 12.7 mph - N/A   Partly Cloudy
1:35 AM 30.2 °F 19.8 °F 26.6 °F 86% 30.38 in 4.0 mi NNE 13.8 mph - N/A   Clear
1:55 AM 30.2 °F 19.3 °F 26.6 °F 86% 30.37 in 4.0 mi NE 15.0 mph - N/A   Clear
2:15 AM 30.2 °F 18.9 °F 26.6 °F 86% 30.36 in 5.0 mi NE 16.1 mph - N/A   Clear
2:35 AM 30.2 °F 18.9 °F 26.6 °F 86% 30.36 in 5.0 mi NE 16.1 mph - N/A   Clear
2:55 AM 30.2 °F 19.3 °F 26.6 °F 86% 30.36 in 6.0 mi NNE 15.0 mph 19.6 mph N/A   Clear
3:15 AM 30.2 °F 20.8 °F 26.6 °F 86% 30.36 in 5.0 mi NNE 11.5 mph - N/A   Clear
3:35 AM 28.4 °F 18.5 °F 26.6 °F 93% 30.35 in 5.0 mi NNE 11.5 mph - N/A   Clear
3:55 AM 28.4 °F 18.5 °F 26.6 °F 93% 30.35 in 5.0 mi NNE 11.5 mph - N/A   Clear
4:15 AM 28.4 °F 19.7 °F 26.6 °F 93% 30.35 in 5.0 mi NNE 9.2 mph - N/A   Clear
4:35 AM 28.4 °F 20.4 °F 24.8 °F 86% 30.33 in 5.0 mi NNE 8.1 mph - N/A   Clear
4:55 AM 28.4 °F 19.1 °F 24.8 °F 86% 30.34 in 5.0 mi North 10.4 mph - N/A   Clear
5:15 AM 28.4 °F 18.5 °F 24.8 °F 86% 30.35 in 5.0 mi North 11.5 mph - N/A   Clear
5:35 AM 28.4 °F 17.0 °F 24.8 °F 86% 30.34 in 4.0 mi North 15.0 mph 20.7 mph N/A   Scattered Clouds
5:55 AM 28.4 °F 18.0 °F 24.8 °F 86% 30.35 in 3.0 mi North 12.7 mph - N/A   Overcast
6:15 AM 28.4 °F 17.5 °F 24.8 °F 86% 30.35 in 3.0 mi North 13.8 mph - N/A   Overcast
6:35 AM 28.4 °F 17.0 °F 24.8 °F 86% 30.35 in 3.0 mi North 15.0 mph - N/A   Overcast
6:55 AM 26.6 °F 14.3 °F 24.8 °F 93% 30.36 in 3.0 mi North 16.1 mph - N/A   Overcast
7:15 AM 26.6 °F 13.8 °F 24.8 °F 93% 30.37 in 3.0 mi North 17.3 mph - N/A   Overcast
7:35 AM 26.6 °F 14.7 °F 24.8 °F 93% 30.37 in 1.5 mi North 15.0 mph - N/A   Overcast
7:55 AM 26.6 °F 14.7 °F 24.8 °F 93% 30.38 in 0.8 mi North 15.0 mph - N/A   Overcast
8:15 AM 26.6 °F 13.8 °F 24.8 °F 93% 30.39 in 0.8 mi North 17.3 mph 21.9 mph N/A   Overcast
8:35 AM 26.6 °F 14.7 °F 24.8 °F 93% 30.40 in 0.8 mi North 15.0 mph - N/A   Overcast
8:55 AM 26.6 °F 14.3 °F 24.8 °F 93% 30.40 in 1.0 mi North 16.1 mph - N/A   Overcast
9:15 AM 26.6 °F 15.2 °F 24.8 °F 93% 30.40 in 0.8 mi North 13.8 mph - N/A   Overcast
9:35 AM 26.6 °F 15.2 °F 24.8 °F 93% 30.40 in 0.5 mi North 13.8 mph - N/A   Overcast
9:55 AM 26.6 °F 16.8 °F 24.8 °F 93% 30.41 in 1.0 mi North 10.4 mph - N/A   Overcast
10:15 AM 26.6 °F 14.7 °F 24.8 °F 93% 30.41 in 0.8 mi North 15.0 mph - N/A   Overcast
10:35 AM 26.6 °F 15.7 °F 24.8 °F 93% 30.41 in 1.5 mi North 12.7 mph - N/A   Overcast
10:55 AM 26.6 °F 14.7 °F 24.8 °F 93% 30.42 in 2.5 mi North 15.0 mph - N/A   Overcast
11:15 AM 26.6 °F 16.2 °F 24.8 °F 93% 30.43 in 1.8 mi North 11.5 mph - N/A   Overcast
11:35 AM 28.4 °F 19.7 °F 26.6 °F 93% 30.42 in 1.5 mi NNW 9.2 mph - N/A   Overcast
11:55 AM 28.4 °F 19.1 °F 26.6 °F 93% 30.42 in 3.0 mi North 10.4 mph - N/A   Overcast
12:15 PM 28.4 °F 18.5 °F 26.6 °F 93% 30.41 in 3.0 mi NNW 11.5 mph - N/A   Overcast
12:35 PM 28.4 °F 18.5 °F 26.6 °F 93% 30.40 in 4.0 mi NNW 11.5 mph - N/A   Overcast
12:55 PM 28.4 °F 18.0 °F 26.6 °F 93% 30.40 in 5.0 mi North 12.7 mph - N/A   Overcast
1:15 PM 28.4 °F 17.5 °F 26.6 °F 93% 30.39 in 5.0 mi North 13.8 mph - N/A   Overcast
1:35 PM 28.4 °F 17.5 °F 26.6 °F 93% 30.39 in 4.0 mi NNW 13.8 mph - N/A   Overcast
1:55 PM 28.4 °F 19.1 °F 26.6 °F 93% 30.38 in 4.0 mi North 10.4 mph - N/A   Overcast
2:15 PM 28.4 °F 18.0 °F 26.6 °F 93% 30.38 in 4.0 mi NNW 12.7 mph - N/A   Overcast
2:35 PM 28.4 °F 19.1 °F 26.6 °F 93% 30.37 in 4.0 mi NNW 10.4 mph - N/A   Overcast
2:55 PM 28.4 °F 19.1 °F 26.6 °F 93% 30.37 in 5.0 mi NNW 10.4 mph - N/A   Overcast
3:15 PM 28.4 °F 19.7 °F 26.6 °F 93% 30.37 in 5.0 mi NNW 9.2 mph - N/A   Overcast
3:35 PM 28.4 °F 19.1 °F 26.6 °F 93% 30.37 in 5.0 mi NNW 10.4 mph - N/A   Overcast
3:55 PM 28.4 °F 19.1 °F 26.6 °F 93% 30.37 in 5.0 mi NNW 10.4 mph - N/A   Overcast
4:15 PM 28.4 °F 19.1 °F 24.8 °F 86% 30.37 in 6.0 mi North 10.4 mph - N/A   Overcast
4:35 PM 28.4 °F 18.0 °F 26.6 °F 93% 30.37 in 7.0 mi NNW 12.7 mph - N/A   Overcast
4:55 PM 28.4 °F 18.5 °F 24.8 °F 86% 30.38 in 6.0 mi NNW 11.5 mph - N/A   Overcast
5:15 PM 28.4 °F 18.5 °F 24.8 °F 86% 30.38 in 6.0 mi NNW 11.5 mph - N/A   Overcast
5:35 PM 28.4 °F 19.7 °F 26.6 °F 93% 30.37 in 5.0 mi NNW 9.2 mph - N/A   Mostly Cloudy
5:55 PM 28.4 °F 21.2 °F 24.8 °F 86% 30.37 in 6.0 mi NNW 6.9 mph - N/A   Partly Cloudy
6:15 PM 28.4 °F 22.2 °F 26.6 °F 93% 30.37 in 8.0 mi NNW 5.8 mph - N/A   Unknown
6:35 PM 28.4 °F 23.3 °F 24.8 °F 86% 30.37 in 7.0 mi NNW 4.6 mph - N/A   Clear
6:55 PM 28.4 °F 22.2 °F 24.8 °F 86% 30.36 in 7.0 mi NNW 5.8 mph - N/A   Clear
7:15 PM 28.4 °F 22.2 °F 24.8 °F 86% 30.36 in 7.0 mi NNW 5.8 mph - N/A   Clear
7:35 PM 28.4 °F 20.4 °F 26.6 °F 93% 30.36 in 8.0 mi NW 8.1 mph - N/A   Clear
7:55 PM 28.4 °F 19.7 °F 26.6 °F 93% 30.36 in 10.0 mi NW 9.2 mph - N/A   Clear
8:15 PM 30.2 °F 21.9 °F 26.6 °F 86% 30.36 in 10.0 mi NW 9.2 mph - N/A   Clear
8:35 PM 30.2 °F 19.8 °F 26.6 °F 86% 30.36 in 10.0 mi NNW 13.8 mph - N/A   Clear
8:55 PM 28.4 °F 19.1 °F 24.8 °F 86% 30.36 in 10.0 mi NW 10.4 mph - N/A   Clear
9:15 PM 28.4 °F 19.1 °F 24.8 °F 86% 30.36 in 10.0 mi NW 10.4 mph - N/A   Clear
9:35 PM 28.4 °F 18.5 °F 24.8 °F 86% 30.36 in 10.0 mi NW 11.5 mph - N/A   Clear
9:55 PM 26.6 °F 15.2 °F 24.8 °F 93% 30.35 in 10.0 mi NW 13.8 mph - N/A   Clear
10:15 PM 26.6 °F 13.4 °F 23.0 °F 86% 30.35 in 1.2 mi NW 18.4 mph - N/A   Mostly Cloudy
10:35 PM 26.6 °F 15.2 °F 23.0 °F 86% 30.35 in 1.2 mi NNW 13.8 mph - N/A   Overcast
10:55 PM 26.6 °F 14.3 °F 24.8 °F 93% 30.35 in 1.2 mi NNW 16.1 mph - N/A   Overcast
11:15 PM 26.6 °F 14.7 °F 23.0 °F 86% 30.35 in 0.8 mi NNW 15.0 mph - N/A   Overcast
11:35 PM 26.6 °F 14.7 °F 24.8 °F 93% 30.35 in 0.8 mi NNW 15.0 mph - N/A   Overcast
11:55 PM 26.6 °F 16.8 °F 24.8 °F 93% 30.35 in 1.8 mi NNW 10.4 mph - N/A   Overcast